This is the latest recevied weather packets stored in our database for station/object CE3UOB-10. If no packets are shown the sender has not sent any weather packets the latest 10 day(s).
| Time | Temp. | Humidity | Pressure | Rain* | Wind** | Luminosity | Snow |
|---|---|---|---|---|---|---|---|
| 1777985505 | 12.78° C | 65% | 993.2 hPa | - | - | - | - |
| 1777983711 | 11.11° C | 65% | 993.5 hPa | - | - | - | - |
| 1777983705 | 11.11° C | 65% | 993.5 hPa | - | - | - | - |
| 1777981910 | 10.56° C | 64% | 993.9 hPa | - | - | - | - |
| 1777981905 | 10.56° C | 64% | 993.9 hPa | - | - | - | - |
| 1777980110 | 11.11° C | 63% | 994.4 hPa | - | - | - | - |
| 1777980105 | 11.11° C | 63% | 994.4 hPa | - | - | - | - |
| 1777978311 | 11.11° C | 64% | 994.2 hPa | - | - | - | - |
| 1777978304 | 11.11° C | 64% | 994.2 hPa | - | - | - | - |
| 1777976511 | 11.11° C | 61% | 993.9 hPa | - | - | - | - |
| 1777976504 | 11.11° C | 61% | 993.9 hPa | - | - | - | - |
| 1777974711 | 10.56° C | 61% | 993.5 hPa | - | - | - | - |
| 1777974704 | 10.56° C | 61% | 993.5 hPa | - | - | - | - |
| 1777972911 | 11.11° C | 60% | 993.1 hPa | - | - | - | - |
| 1777972904 | 11.11° C | 60% | 993.1 hPa | - | - | - | - |
| 1777971111 | 10.56° C | 62% | 993 hPa | - | - | - | - |
| 1777971104 | 10.56° C | 62% | 993 hPa | - | - | - | - |
| 1777969313 | 11.11° C | 61% | 993 hPa | - | - | - | - |
| 1777969303 | 11.11° C | 61% | 993 hPa | - | - | - | - |
| 1777967562 | 11.67° C | 60% | 992.8 hPa | - | - | - | - |
| 1777967515 | 11.67° C | 60% | 992.8 hPa | - | - | - | - |
| 1777967508 | 11.67° C | 60% | 992.8 hPa | - | - | - | - |
| 1777966064 | 12.22° C | 58% | 992.6 hPa | - | - | - | - |
| 1777965715 | 12.22° C | 58% | 992.6 hPa | - | - | - | - |
| 1777965708 | 12.22° C | 58% | 992.6 hPa | - | - | - | - |
* Rain since midnight (hover to see other rain measurements)
** Current wind speed in m/s (hover to see current wind gust speed)